C/2017 K2 ( PanSTARRS )

Japanese version
Home page
Updated on May 2, 2021

---------------------------------------------------------------------

* Profile

Discovery Date May 21, 2017
Magnitude 20.8 mag
Discoverer Pan-STARRS 1 telescope (Haleakala)

* Pictures

* Orbital Elements

Epoch 2022 Dec. 7.0 TT = JDT 2459920.5
T 2022 Dec. 19.67294 TT                                 Rudenko
q   1.7969663            (2000.0)            P               Q
z  -0.0004753      Peri.  236.19667     +0.01818392     +0.04923157
 +/-0.0000005      Node    88.23544     -0.18095677     +0.98245462
e   1.0008541      Incl.   87.56306     -0.98332293     -0.17988657
From 3511 observations 2013 May 12-2021 Jan. 26, mean residual 0".4.

* Finding Charts

* Magnitudes Graph

        m1 = 1.0 + 5 log d + 10.0 log r

---------------------------------------------------------------------

The orbital elements are published on M.P.E.C. 2021-B143.
The charts are made with StellaNavigator Ver.10 (AstroArts).
The magnitudes graphs are made with Comet for Windows.

---------------------------------------------------------------------

Copyright(C) Seiichi Yoshida (comet@aerith.net). All rights reserved.